Погода в Акбайтале

Погода в Акбайтале : погода сейчас, прогноз погоды и архив. Всё, что Вы хотите узнать о погоде в Акбайтале!

Хотите узнать прогноз погоды в Акбайтале? Тогда Вам сюда: Погода в Акбайтале

Поиск расширенной информации на нашем сайте:

Другие новости

Новости СМИ2

Главная страница сайта

Новости сайта

03.07.2017

Напоминаем, что на нашем специализированном сайте Метеоцентр.Азия вы можете получить высокодетализированные автоматические прогнозы погоды по пунктам России, СНГ и мира в авиационном формате (включающие направление и скорость ветра, видимость, явления погоды, количество и форму облачности, нижнюю и верхнюю границу облачности).


Погода в Акбайтале - сегодня

Время (UTC), дата Ветер
(°,м/с) 
Видим.   Явления Облачность Т
(°С)
Тd
(°С)
f(%) Тe
(°С)
Pmin
(гПа)
dP
(гПа)
Po
(мм)
O2
(г/м3)
Тmin Tmax R s Состояние
почвы
15 12.01.18 тихо ()   н/о    10/10 600 м 
[Sc]
-4.3 -13.1 50 -4  1026.9  -1.1  748  307    -2.2       
18 12.01.18 070 (В) н/о    8/8 600 м 
[Sc]
-4.6 -13.1 51 -7  1025.2  -1.6  747  307    -2.2       
21 12.01.18 070 (В) н/о    8/8 600 м 
[Sc]
-4.6 -13.1 51 -7  1025.2  -1.6  747  307    -2.2       
03 13.01.18 360 (С) 20000 м    10/10 600 м 
[Sc]
-5.6 -12.2 60 -8  1022.6  -0.3  745  307           
06 13.01.18 010 (С) 20000 м    9/0 верхняя 
[Ci ing]
-4.5 -12.2 55 -7  1023.7  1.1  745  306  -5.6         
09 13.01.18 020 (С) 20000 м    6/0 средняя 
[Ac cast]
-2.5 -11.9 48 -5  1023.4  -0.1  745  304           
12 13.01.18 030 (СВ) 20000 м    5/0 средняя 
[Ac cast]
-1.8 -12.5 44 -4  1024  24  746  304           
15 13.01.18 070 (В) н/о    3/0 средняя 
[Ac As]
-2.3 -12.2 47 -3  1026.2  2.1  747  305    -1.8       
18 13.01.18 040 (СВ) н/о    ясно 
-3.8 -12.8 50 -7  1027.5  1.1  748  307    -1.8       
00 14.01.18 360 (С) н/о    ясно 
-7.7 -14.3 59 -9    0.2  750  312           
06 14.01.18 тихо ()   20000 м    6/0 
[Sc]
-6.8 -6.8 100 -7  1028.6  0.6  749  310  -8.6         
09 14.01.18 350 (С) 20000 м    10/10 600 м 
[Sc]
-4.8 -13.3 51 -6  1027.3  -1.1  748  308           
12 14.01.18 360 (С) 4000 м  слаб. снег  10/10 600 м 
[Sc]
-6.6 -13 60 -8  1027.8  0.5  748  310           
15 14.01.18 340 (С) н/о  {снег}  10/10 600 м 
[Sc]
-7.8 -12.3 70 -9  1028.2  0.2  748  312    -4.7     
18 14.01.18 тихо ()   н/о    10/10 600 м 
[Sc]
-8.3 -12.5 72 -8  1028.8  0.6  749  312    -4.7     
21 14.01.18 020 (С) н/о    ясно 
-5.6 -13.3 55 -7  1027.9  0.3  748  309           
03 15.01.18 360 (С) н/о    10/10 600 м 
[Sc]
-11.8 -14.3 82 -14  1030.9  750  317           
06 15.01.18 010 (С) 20000 м    6/6 600 м 
[Sc]
-11.2 -14.6 76 -13  1031.2  0.4  750  317  -11.8         
09 15.01.18 250 (З) 98  28000 м    5/3 50 м 
[Sc]
-9.7 +70.2 100 +510  1030  -1.1  749  216           
12 15.01.18 050 (СВ) 20000 м    3/3 600 м 
[Sc]
-10 -14.8 68 -13  1029  -0.9  749  314           
15 15.01.18 010 (С) н/о    ясно <0100 м 
-11.6 -6.5 100 -15  1028.7  -0.4  749  316          полностью
покрыта
пылью 
18 15.01.18 360 (С) н/о    ясно 
-12.8 +8.4 100 -16  1028.6  -0.3  748  315    -9.7       
03 16.01.18 010 (С) 20000 м    ясно 
-17.9 +19.9 100 -1  1018.7  0.1  748  317  -17.9         
06 16.01.18 350 (С) 20000 м    ясно 
-15.3 -19.1 73 -18  1028  -0.2  748  321  -17.9         
09 16.01.18 340 (С) 20000 м    ясно 
-10.8 -17.1 60 -13  1024.5  -1.5  746  315           
Время (UTC), дата Ветер
(°,м/с) 
Видим.   Явления Облачность Т
(°С)
Тd
(°С)
f(%) Тe
(°С)
Pmin
(гПа)
dP
(гПа)
Po
(мм)
O2
(г/м3)
Тmin Tmax R s Состояние
почвы

Для получения пояснительной информации подведите курсор к названию столбца.

ПОГОДА в Акбайтале - архив

Всё, что Вы хотите узнать о погоде в Акбайтале - удобно и подробно!

Выберите нужную дату (начиная с 1 января 2015* года) и нажмите кнопку "Найти".
Будут отображены архивные сводки погоды по пункту Акбайтал, начиная с указанной даты.


Отображать данные в формате CSV (для использования в таблицах Excel)


Внимание! Наш архив погоды предназначен исключительно для личного некоммерческого использования в познавательных целях. Если Вам необходимы официальные справки о состоянии погоды (для производственных, юридических, коммерческих и т.п. целей), обращайтесь в органы Росгидромета.

*Примечание: данная дата относится к архиву по метеостанциям СССР (Россия, СНГ, Балтия).
Архив по метеостанциям Зарубежной Европы и Азии (кроме Китая) хранится 10 дней, по другим регионам земного шара (Китай, Африка, Америка, Австралия, Океания) - 1 день.

Акбайтал - район местоположения метеостанции


Название, широта, долгота, высота метеостанции:
Акбайтал 43.2°ш. 64.3°д. 234 м над ур. моря [Узбекистан]

Дополнительная информация

В oтличие oт бoльшинства пoгoдных сайтoв мы публикуем пoдрoбную метеoинфoрмацию в детальнoм прoфессиoнальнoм фoрмате.

Характеристики температуры и влажнoсти вoздуха измеряются на высoте 2 м в тени вдали oт зданий и деревьев.
Скoрoсть ветра измеряется на высoте 10 м (на урoвне рoста челoвека скoрoсть ветра ниже в 1.5-2 раза). Если метеoстанция нахoдится в гoрoде или в лесу, тo скoрoсть ветра занижена на 2-4 м/с пo сравнению с oткрытым местoм. Скoрoсть ветра над акватoриями крупных рек и oзёр, а также на вершинах хoлмoв на 2-5 м/с выше, чем в oбычных услoвиях.
Атмoсфернoе давление в разных тoчках местнoсти мoжет значительнo oтличаться oт давления на метеoстанции, в зависимoсти oт услoвий рельефа (при пoдъёме на 10 м давление пoнижается примернo на 1 мм рт.ст.).